Location: Newark
(48.1500°N, 13.1167°E)
Time: 11:04:01
(UTC+00:00)

XW-2D - Pass Details

Date: 10 December 2021
Orbit: 502 x 522 km, 97.5° (Epoch: 21 January)

Event Time Altitude Azimuth Distance (km) Brightness Sun altitude
Rises 16:29:27 0° 177° (S) 2,620 ? -12.0°
Reaches altitude 10° 16:31:34 10° 183° (S) 1,742 ? -12.3°
Maximum altitude 16:35:14 52° 260° (W) 657 ? -12.9°
Drops below altitude 10° 16:38:58 10° 338° (NNW) 1,768 ? -13.5°
Sets 16:41:08 0° 343° (NNW) 2,664 ? -13.8°
